Time,TemperatureF,DewpointF,PressureIn,WindDirection,WindDirectionDegrees,WindSpeedMPH,WindSpeedGustMPH,Humidity,HourlyPrecipIn,Conditions,Clouds,dailyrainin,SoftwareType,DateUTC
2013-06-24 00:03:00,67.0,41.0,-100.00,East,86,4.0,5.0,38,0.00,,,0.00,,2013-06-24 06:03:00,
2013-06-24 00:22:00,65.0,42.0,-100.00,ENE,66,4.0,5.0,43,0.00,,,0.00,,2013-06-24 06:22:00,
2013-06-24 00:34:00,65.0,41.0,-100.00,ENE,69,4.0,5.0,42,0.00,,,0.00,,2013-06-24 06:34:00,
2013-06-24 00:43:00,64.0,43.0,-100.00,ENE,59,3.0,4.0,46,0.00,,,0.00,,2013-06-24 06:43:00,
2013-06-24 00:54:00,64.0,43.0,-100.00,ENE,59,3.0,4.0,46,0.00,,,0.00,,2013-06-24 06:54:00,
2013-06-24 01:03:00,61.0,42.0,-100.00,NE,34,3.0,3.0,50,0.00,,,0.00,,2013-06-24 07:03:00,
2013-06-24 01:13:00,59.0,41.0,-100.00,ENE,73,4.0,4.0,50,0.00,,,0.00,,2013-06-24 07:13:00,
2013-06-24 01:26:00,59.0,41.0,-100.00,ENE,73,4.0,4.0,50,0.00,,,0.00,,2013-06-24 07:26:00,
2013-06-24 01:34:00,57.0,41.0,-100.00,NNW,346,3.0,4.0,55,0.00,,,0.00,,2013-06-24 07:34:00,
2013-06-24 01:45:00,56.0,40.0,-100.00,North,357,2.0,2.0,53,0.00,,,0.00,,2013-06-24 07:45:00,
2013-06-24 01:55:00,56.0,40.0,-100.00,North,357,2.0,2.0,53,0.00,,,0.00,,2013-06-24 07:55:00,
2013-06-24 02:03:00,56.0,40.0,-100.00,North,357,2.0,2.0,53,0.00,,,0.00,,2013-06-24 08:03:00,
2013-06-24 02:13:00,54.0,39.0,-100.00,NW,322,4.0,5.0,58,0.00,,,0.00,,2013-06-24 08:13:00,
2013-06-24 02:24:00,54.0,39.0,-100.00,NW,322,4.0,5.0,58,0.00,,,0.00,,2013-06-24 08:24:00,
2013-06-24 03:03:00,53.0,40.0,-100.00,WNW,282,3.0,4.0,62,0.00,,,0.00,,2013-06-24 09:03:00,
2013-06-24 03:34:00,51.0,42.0,-100.00,SW,234,9.0,11.0,72,0.00,,,0.00,,2013-06-24 09:34:00,
2013-06-24 03:44:00,52.0,42.0,-100.00,SW,224,5.0,6.0,69,0.00,,,0.00,,2013-06-24 09:44:00,
2013-06-24 03:57:00,52.0,42.0,-100.00,SW,224,5.0,6.0,69,0.00,,,0.00,,2013-06-24 09:57:00,
2013-06-24 05:02:00,56.0,45.0,-100.00,South,178,7.0,9.0,66,0.00,,,0.00,,2013-06-24 11:02:00,
2013-06-24 05:13:00,56.0,45.0,-100.00,South,185,8.0,11.0,68,0.00,,,0.00,,2013-06-24 11:13:00,
2013-06-24 05:25:00,56.0,45.0,-100.00,South,185,8.0,11.0,68,0.00,,,0.00,,2013-06-24 11:25:00,
2013-06-24 05:34:00,57.0,45.0,-100.00,South,186,7.0,10.0,64,0.00,,,0.00,,2013-06-24 11:34:00,
2013-06-24 05:43:00,56.0,45.0,-100.00,South,176,6.0,9.0,68,0.00,,,0.00,,2013-06-24 11:43:00,
2013-06-24 05:56:00,56.0,45.0,-100.00,South,176,6.0,9.0,68,0.00,,,0.00,,2013-06-24 11:56:00,
2013-06-24 06:03:00,56.0,45.0,-100.00,South,188,7.0,12.0,66,0.00,,,0.00,,2013-06-24 12:03:00,
2013-06-24 06:13:00,56.0,45.0,-100.00,South,188,7.0,12.0,66,0.00,,,0.00,,2013-06-24 12:13:00,
2013-06-24 06:23:00,56.0,45.0,-100.00,South,186,5.0,8.0,66,0.00,,,0.00,,2013-06-24 12:23:00,
2013-06-24 07:02:00,55.0,45.0,-100.00,SSE,147,9.0,11.0,70,0.00,,,0.00,,2013-06-24 13:02:00,
2013-06-24 07:22:00,55.0,46.0,-100.00,SSE,162,8.0,10.0,71,0.00,,,0.00,,2013-06-24 13:22:00,
2013-06-24 07:42:00,55.0,46.0,-100.00,South,178,5.0,7.0,71,0.00,,,0.00,,2013-06-24 13:42:00,
2013-06-24 07:57:00,55.0,46.0,-100.00,South,178,5.0,7.0,71,0.00,,,0.00,,2013-06-24 13:57:00,
2013-06-24 08:22:00,57.0,47.0,-100.00,South,178,6.0,8.0,69,0.00,,,0.00,,2013-06-24 14:22:00,
2013-06-24 08:43:00,59.0,49.0,-100.00,SSE,167,7.0,9.0,69,0.00,,,0.00,,2013-06-24 14:43:00,
2013-06-24 09:25:00,62.0,47.0,-100.00,SSW,195,8.0,11.0,59,0.00,,,0.00,,2013-06-24 15:25:00,
2013-06-24 09:34:00,62.0,47.0,-100.00,SSW,195,8.0,11.0,59,0.00,,,0.00,,2013-06-24 15:34:00,
2013-06-24 09:45:00,65.0,49.0,-100.00,South,185,9.0,13.0,55,0.00,,,0.00,,2013-06-24 15:45:00,
2013-06-24 09:56:00,65.0,49.0,-100.00,South,185,9.0,13.0,55,0.00,,,0.00,,2013-06-24 15:56:00,
2013-06-24 10:02:00,65.0,47.0,-100.00,South,185,8.0,13.0,53,0.00,,,0.00,,2013-06-24 16:02:00,
2013-06-24 10:23:00,65.0,51.0,-100.00,South,182,5.0,8.0,61,0.00,,,0.00,,2013-06-24 16:23:00,
2013-06-24 10:34:00,65.0,51.0,-100.00,South,182,5.0,8.0,61,0.00,,,0.00,,2013-06-24 16:34:00,
2013-06-24 10:55:00,67.0,44.0,-100.00,SSW,208,6.0,10.0,42,0.00,,,0.00,,2013-06-24 16:55:00,
2013-06-24 11:02:00,67.0,44.0,-100.00,SSW,208,6.0,10.0,42,0.00,,,0.00,,2013-06-24 17:02:00,
2013-06-24 11:34:00,69.0,45.0,-100.00,SSW,196,8.0,12.0,42,0.00,,,0.00,,2013-06-24 17:34:00,
2013-06-24 12:01:00,71.0,47.0,-100.00,SSW,202,11.0,15.0,43,0.00,,,0.00,,2013-06-24 18:01:00,
2013-06-24 12:13:00,71.0,47.0,-100.00,SSW,202,11.0,15.0,43,0.00,,,0.00,,2013-06-24 18:13:00,
2013-06-24 12:34:00,72.0,43.0,-100.00,SW,233,7.0,9.0,35,0.00,,,0.00,,2013-06-24 18:34:00,
2013-06-24 12:55:00,74.0,42.0,-100.00,SSW,193,7.0,10.0,32,0.00,,,0.00,,2013-06-24 18:55:00,
2013-06-24 13:03:00,74.0,42.0,-100.00,SSW,193,7.0,10.0,32,0.00,,,0.00,,2013-06-24 19:03:00,
2013-06-24 13:12:00,71.0,43.0,-100.00,SSW,209,6.0,10.0,37,0.00,,,0.00,,2013-06-24 19:12:00,
2013-06-24 13:24:00,71.0,43.0,-100.00,SSW,209,6.0,10.0,37,0.00,,,0.00,,2013-06-24 19:24:00,
2013-06-24 13:34:00,71.0,45.0,-100.00,SSW,198,6.0,9.0,39,0.00,,,0.00,,2013-06-24 19:34:00,
2013-06-24 13:42:00,72.0,47.0,-100.00,South,181,8.0,11.0,41,0.00,,,0.00,,2013-06-24 19:42:00,
2013-06-24 14:02:00,71.0,46.0,-100.00,SSW,196,7.0,14.0,40,0.00,,,0.00,,2013-06-24 20:02:00,
2013-06-24 14:22:00,72.0,42.0,-100.00,SW,216,7.0,11.0,34,0.00,,,0.00,,2013-06-24 20:22:00,
2013-06-24 14:33:00,72.0,42.0,-100.00,SW,216,7.0,11.0,34,0.00,,,0.00,,2013-06-24 20:33:00,
2013-06-24 14:43:00,73.0,41.0,-100.00,SSW,213,7.0,9.0,32,0.00,,,0.00,,2013-06-24 20:43:00,
2013-06-24 14:55:00,73.0,41.0,-100.00,SSW,213,7.0,9.0,32,0.00,,,0.00,,2013-06-24 20:55:00,
2013-06-24 15:02:00,74.0,41.0,-100.00,SW,215,6.0,9.0,31,0.00,,,0.00,,2013-06-24 21:02:00,
2013-06-24 15:23:00,74.0,44.0,-100.00,SW,217,10.0,12.0,34,0.00,,,0.00,,2013-06-24 21:23:00,
2013-06-24 15:44:00,74.0,42.0,-100.00,WSW,247,13.0,17.0,32,0.00,,,0.00,,2013-06-24 21:44:00,
2013-06-24 15:54:00,74.0,42.0,-100.00,WSW,247,13.0,17.0,32,0.00,,,0.00,,2013-06-24 21:54:00,
2013-06-24 16:23:00,73.0,41.0,-100.00,WSW,257,20.0,26.0,31,0.00,,,0.00,,2013-06-24 22:23:00,
2013-06-24 16:34:00,73.0,41.0,-100.00,WSW,257,20.0,26.0,31,0.00,,,0.00,,2013-06-24 22:34:00,
2013-06-24 16:45:00,67.0,45.0,-100.00,WSW,258,27.0,36.0,44,0.00,,,0.00,,2013-06-24 22:45:00,
2013-06-24 16:56:00,67.0,45.0,-100.00,WSW,258,27.0,36.0,44,0.00,,,0.00,,2013-06-24 22:56:00,
2013-06-24 17:03:00,67.0,44.0,-100.00,West,260,24.0,33.0,43,0.00,,,0.00,,2013-06-24 23:03:00,
2013-06-24 17:11:00,65.0,47.0,-100.00,WSW,256,15.0,19.0,52,0.00,,,0.00,,2013-06-24 23:11:00,
2013-06-24 17:23:00,65.0,47.0,-100.00,WSW,256,15.0,19.0,52,0.00,,,0.00,,2013-06-24 23:23:00,
2013-06-24 17:33:00,65.0,47.0,-100.00,WSW,256,15.0,19.0,52,0.00,,,0.00,,2013-06-24 23:33:00,
2013-06-24 17:43:00,67.0,45.0,-100.00,West,275,20.0,26.0,46,0.00,,,0.00,,2013-06-24 23:43:00,
2013-06-24 17:54:00,67.0,45.0,-100.00,West,275,20.0,26.0,46,0.00,,,0.00,,2013-06-24 23:54:00,
2013-06-24 18:02:00,66.0,44.0,-100.00,West,267,19.0,23.0,44,0.00,,,0.00,,2013-06-25 00:02:00,
2013-06-24 18:33:00,66.0,45.0,-100.00,West,264,15.0,19.0,46,0.00,,,0.00,,2013-06-25 00:33:00,
2013-06-24 18:55:00,66.0,44.0,-100.00,WSW,253,14.0,18.0,45,0.00,,,0.00,,2013-06-25 00:55:00,
2013-06-24 19:02:00,66.0,44.0,-100.00,WSW,253,14.0,18.0,45,0.00,,,0.00,,2013-06-25 01:02:00,
2013-06-24 19:23:00,66.0,44.0,-100.00,West,261,19.0,26.0,44,0.00,,,0.00,,2013-06-25 01:23:00,
2013-06-24 19:33:00,66.0,44.0,-100.00,WSW,257,16.0,22.0,45,0.00,,,0.00,,2013-06-25 01:33:00,
2013-06-24 19:44:00,66.0,45.0,-100.00,West,270,15.0,22.0,47,0.00,,,0.00,,2013-06-25 01:44:00,
2013-06-24 20:02:00,65.0,44.0,-100.00,WSW,256,12.0,15.0,46,0.00,,,0.00,,2013-06-25 02:02:00,
2013-06-24 20:24:00,65.0,46.0,-100.00,WSW,250,10.0,15.0,50,0.00,,,0.00,,2013-06-25 02:24:00,
2013-06-24 20:34:00,64.0,45.0,-100.00,SW,232,15.0,17.0,50,0.00,,,0.00,,2013-06-25 02:34:00,
2013-06-24 20:43:00,63.0,45.0,-100.00,SW,217,13.0,19.0,52,0.00,,,0.00,,2013-06-25 02:43:00,
2013-06-24 21:25:00,62.0,46.0,-100.00,SSW,208,9.0,13.0,56,0.00,,,0.00,,2013-06-25 03:25:00,
2013-06-24 21:35:00,62.0,46.0,-100.00,SW,222,11.0,15.0,57,0.00,,,0.00,,2013-06-25 03:35:00,
2013-06-24 21:45:00,61.0,47.0,-100.00,SSW,213,9.0,12.0,59,0.00,,,0.00,,2013-06-25 03:45:00,
2013-06-24 22:01:00,60.0,48.0,-100.00,SSW,206,8.0,11.0,64,0.00,,,0.00,,2013-06-25 04:01:00,
2013-06-24 22:11:00,60.0,48.0,-100.00,SSW,206,8.0,11.0,64,0.00,,,0.00,,2013-06-25 04:11:00,
2013-06-24 22:22:00,60.0,48.0,-100.00,SSW,206,8.0,11.0,64,0.00,,,0.00,,2013-06-25 04:22:00,
2013-06-24 22:33:00,58.0,51.0,-100.00,South,181,5.0,7.0,77,0.00,,,0.00,,2013-06-25 04:33:00,
2013-06-24 22:43:00,58.0,51.0,-100.00,South,181,5.0,7.0,77,0.00,,,0.00,,2013-06-25 04:43:00,
2013-06-24 22:52:00,58.0,51.0,-100.00,South,181,5.0,7.0,77,0.00,,,0.00,,2013-06-25 04:52:00,
2013-06-24 23:01:00,57.0,51.0,-100.00,South,181,6.0,9.0,81,0.00,,,0.00,,2013-06-25 05:01:00,
2013-06-24 23:22:00,57.0,51.0,-100.00,South,181,5.0,7.0,83,0.00,,,0.00,,2013-06-25 05:22:00,
2013-06-24 23:32:00,57.0,51.0,-100.00,South,181,5.0,7.0,83,0.00,,,0.00,,2013-06-25 05:32:00,
2013-06-24 23:44:00,56.0,52.0,-100.00,South,184,4.0,6.0,87,0.00,,,0.00,,2013-06-25 05:44:00,
2013-06-24 23:52:00,56.0,52.0,-100.00,South,184,4.0,6.0,87,0.00,,,0.00,,2013-06-25 05:52:00,